Wind_Speed
40 36 33 31 29 34 32 30 32 36 37 34 32 29 27 26 26 26 28 23 28 15 24 15 10 13 8 2 6 10 8 3 2 3 3 1 2 6 4 3 7 9 6 4 5 5 7 9 5 9 8 12 15 12
34 33 32 28 26 30 29 29 32 35 34 33 31 27 26 26 26 24 22 27 29 14 12 29 7 7 8 5 15 18 9 6 8 3 1 1 3 1 5 3 4 3 6 5 7 6 6 2 3 8 14 14 10 11
30 27 27 27 26 28 28 30 32 32 31 30 28 25 26 27 28 26 26 22 30 24 14 19 5 7 7 3 6 7 5 7 7 7 3 2 4 1 4 5 4 6 11 4 4 5 4 7 3 7 6 3 4 8
24 26 24 21 28 28 31 32 31 29 28 27 25 26 27 29 26 26 29 27 28 9 3 6 10 10 13 10 5 10 19 13 12 7 3 3 2 3 1 2 2 5 4 4 2 7 13 7 4 3 9 7 2 8
21 26 25 23 32 32 32 31 29 27 25 25 24 24 24 26 28 27 31 29 30 6 2 8 14 11 13 11 9 11 12 13 10 3 2 3 4 3 3 2 3 4 4 4 5 8 7 5 8 8 10 10 7 7
25 23 25 35 35 34 32 30 27 24 22 21 20 19 23 29 29 36 14 29 29 19 4 3 7 12 11 13 12 12 10 8 6 3 1 3 5 2 1 3 6 16 15 11 5 8 11 11 7 7 7 7 7 9
25 30 38 36 35 33 30 27 24 22 19 15 11 15 12 19 41 19 10 33 37 26 6 2 3 10 12 11 8 7 4 4 4 3 3 3 2 6 1 4 5 8 10 12 20 13 8 8 7 9 10 10 9 9
42 40 37 35 33 30 28 26 23 20 16 10 9 14 10 16 19 22 30 34 12 4 6 3 2 5 14 6 4 3 3 2 3 3 2 1 3 6 5 6 15 23 27 25 13 11 12 10 9 10 12 11 9 8
37 35 34 32 30 29 28 25 22 21 14 15 20 17 7 16 13 24 23 11 11 7 2 3 4 3 13 6 5 3 2 1 1 1 3 4 3 5 7 15 17 13 14 21 24 23 16 14 13 10 12 10 10 9
35 32 31 31 30 28 27 26 25 22 21 24 11 7 8 12 23 20 8 3 8 7 4 2 7 2 11 6 3 4 2 2 2 6 5 3 4 22 24 24 23 25 24 18 18 20 22 22 19 14 12 12 11 11
31 30 30 29 28 27 27 27 25 28 20 5 6 6 18 16 8 7 4 2 2 2 3 3 15 5 8 3 3 5 3 3 3 2 4 3 4 10 31 35 34 27 18 15 16 26 18 16 15 13 13 14 14 13
28 27 26 25 26 26 27 28 26 17 4 3 16 21 9 3 3 4 1 1 2 4 6 4 9 9 6 5 3 3 3 1 4 6 3 2 3 11 6 23 31 28 20 11 8 16 17 14 12 14 17 18 17 14
24 25 24 25 23 21 23 25 11 10 21 14 5 3 2 2 3 5 5 3 2 3 8 13 3 6 5 4 4 3 3 5 1 2 3 3 6 14 14 17 17 16 22 26 20 18 17 16 12 15 16 12 11 10
33 25 22 24 26 25 19 16 16 13 2 2 2 2 2 1 3 3 3 3 1 8 12 17 6 3 3 2 3 3 4 1 2 2 4 1 8 9 10 11 14 20 19 20 18 15 12 9 10 10 10 10 9 9
25 25 19 19 17 18 18 9 5 2 3 2 2 2 3 2 5 4 4 2 4 6 8 9 5 3 1 2 2 2 1 3 4 3 1 9 8 7 8 9 11 15 13 12 9 8 9 9 9 9 9 9 8 8
18 15 13 9 8 10 10 3 3 4 5 5 4 3 7 2 1 3 3 4 3 4 10 6 3 3 4 4 3 6 3 5 3 1 8 10 8 8 8 9 10 10 9 9 9 9 9 8 8 8 9 8 8 9
7 7 7 7 5 8 6 1 2 3 3 4 3 3 3 4 5 3 3 5 7 7 2 3 4 6 2 3 4 4 4 2 8 6 6 9 12 10 11 12 11 11 10 10 10 9 7 7 5 8 10 10 9 9
8 4 6 12 11 9 6 2 2 1 3 7 3 2 5 6 5 7 6 7 5 6 5 2 4 4 4 4 2 3 4 7 6 7 8 11 12 12 12 12 11 10 11 10 10 9 9 9 7 5 9 11 11 10
10 9 10 12 17 9 4 3 1 2 3 3 3 6 5 5 6 5 7 7 7 4 2 2 4 2 1 1 3 6 10 9 9 9 10 11 11 12 12 11 9 8 8 9 11 10 10 9 8 7 8 10 10 10
18 17 18 17 14 2 3 3 3 3 3 2 4 3 4 6 8 8 8 6 6 3 2 3 1 2 3 7 6 4 7 10 11 11 10 12 13 14 13 12 10 8 8 8 8 7 11 11 9 8 8 10 10 7
20 13 10 7 3 4 4 3 4 3 3 4 5 3 4 5 5 3 3 5 6 4 3 4 7 9 7 7 6 5 7 8 12 10 14 13 12 13 12 10 7 8 8 11 11 10 10 9 9 9 9 10 10 8
5 7 10 8 3 3 4 4 5 6 3 2 2 2 4 2 3 4 2 3 3 3 5 7 9 8 9 9 8 8 8 9 9 8 12 14 16 14 13 12 10 10 8 8 8 10 11 10 9 8 11 12 12 11
2 3 2 3 2 3 5 3 3 3 1 2 1 2 2 2 1 4 2 4 4 7 7 7 8 10 11 9 7 7 8 9 9 9 10 9 10 11 11 11 12 11 11 9 7 9 10 11 10 11 10 12 12 12
5 3 3 2 4 3 3 2 3 3 1 1 2 3 1 1 3 2 3 5 6 8 12 14 15 15 11 9 10 10 9 9 10 11 10 12 12 12 9 11 9 8 8 8 8 8 9 10 10 10 11 12 13 14
2 3 2 3 3 2 2 2 2 2 2 3 2 3 2 2 2 3 3 3 11 14 16 16 15 13 14 14 13 11 8 9 12 14 13 11 11 12 10 10 9 8 9 9 9 9 9 9 9 11 12 11 13 13
1 3 2 2 2 2 3 2 2 2 1 1 3 1 2 2 2 4 2 2 3 11 16 17 16 15 14 15 15 11 10 9 10 10 10 10 10 10 11 11 9 9 8 10 10 10 10 9 9 10 11 11 13 13
2 3 3 2 2 4 3 3 3 2 2 3 2 1 1 3 4 1 2 2 2 6 12 14 15 14 16 15 12 12 12 12 11 12 12 11 12 11 11 11 15 11 9 8 9 9 9 8 9 10 10 10 12 14
2 2 1 0 2 2 2 3 2 4 3 1 2 1 3 3 1 1 2 4 3 3 11 16 15 15 14 16 14 14 13 13 13 12 13 13 12 13 13 14 14 10 11 11 9 10 8 7 7 10 10 10 10 12
2 1 2 3 2 4 5 4 3 1 1 0 1 2 2 3 3 8 13 10 5 8 6 13 16 14 15 16 12 9 10 13 14 13 10 9 8 6 6 10 12 14 14 12 11 11 11 11 9 8 10 10 9 12
1 1 3 3 3 4 4 6 4 7 8 8 8 12 18 19 19 18 16 13 10 12 12 13 13 15 17 15 12 11 10 12 12 11 13 12 11 8 6 6 7 9 10 9 8 11 12 13 12 12 12 11 12 13
3 2 3 5 4 6 8 8 11 15 17 17 15 19 20 16 17 22 20 18 13 16 14 14 14 14 13 12 13 12 12 13 13 15 12 11 12 11 9 7 6 7 9 9 8 10 12 13 14 15 14 13 14 14
4 5 3 3 4 5 12 4 4 6 6 10 11 12 11 7 5 8 9 10 15 19 19 17 16 15 12 14 13 12 7 7 10 10 12 11 10 9 7 7 7 8 12 12 10 13 14 14 15 15 15 15 15 14
8 11 13 6 4 4 6 3 4 4 7 5 7 12 13 8 6 5 7 9 11 17 20 19 18 16 14 16 16 14 13 10 8 7 7 6 5 5 5 6 7 7 9 11 12 14 16 15 15 16 16 16 15 15
Wind_Direction
247 242 241 237 239 230 231 217 214 207 207 212 215 216 216 214 213 212 220 215 206 216 252 273 280 180 242 147 191 175 114 141 112 148 174 70 244 189 146 217 161 178 181 189 202 187 244 232 258 180 199 149 135 120
235 233 231 229 231 215 214 203 200 200 204 208 210 213 212 210 210 213 215 212 213 217 251 235 196 138 199 29 282 167 142 129 158 115 142 193 234 146 159 216 159 207 177 180 176 212 221 31 45 124 158 146 151 166
221 215 216 214 209 199 194 189 189 193 197 202 204 208 207 208 210 213 209 213 203 222 256 243 221 99 156 158 69 121 101 130 138 114 126 157 251 211 166 228 172 201 191 197 88 268 220 236 117 125 41 20 167 182
201 197 195 200 180 180 177 178 182 187 193 195 201 203 207 209 216 209 204 207 193 173 178 189 190 170 123 141 156 120 124 116 144 148 114 133 207 268 277 250 143 202 124 185 257 295 294 306 144 233 227 272 229 185
180 172 174 177 170 164 165 170 176 181 185 192 200 208 215 220 220 226 212 210 180 136 148 159 160 150 149 129 126 129 117 121 119 120 128 194 215 207 231 57 297 210 204 165 222 177 200 217 118 132 168 183 196 205
137 148 166 150 147 152 159 165 168 174 179 187 203 215 232 242 213 189 177 197 202 182 207 160 136 148 129 123 109 108 124 105 114 113 190 257 266 104 231 202 219 237 256 267 223 275 270 215 221 236 196 211 239 242
129 131 130 136 142 148 151 155 160 165 169 174 206 240 190 132 158 169 177 177 180 177 192 69 65 157 138 124 104 94 116 134 133 139 196 202 332 12 186 216 249 277 276 295 256 251 222 210 193 208 235 243 241 219
112 119 127 131 136 139 143 145 149 154 151 168 162 123 72 107 91 103 121 142 141 198 137 120 95 114 162 133 117 132 106 153 172 219 282 174 214 171 223 242 248 241 250 262 260 238 239 236 233 219 203 204 216 232
109 114 120 125 129 133 135 140 142 139 141 123 106 108 99 59 83 91 124 120 82 93 103 107 129 180 163 132 118 122 146 101 87 214 222 177 220 226 209 209 224 228 226 240 247 251 246 226 228 192 202 194 203 220
106 110 115 121 126 129 132 137 135 134 127 106 73 42 41 80 109 96 103 48 27 30 30 102 113 148 159 146 133 119 114 223 218 226 204 196 242 228 228 229 234 237 245 251 250 248 243 244 192 185 203 205 218 217
104 109 114 120 124 128 132 136 137 133 112 53 55 64 112 105 56 57 63 61 24 348 229 220 139 137 152 118 120 169 168 222 241 226 177 232 263 230 232 228 230 228 225 250 266 249 223 202 182 180 184 193 201 207
99 105 112 118 123 126 131 136 135 123 55 65 126 117 105 68 85 91 174 131 198 224 191 154 141 121 122 141 109 157 211 161 248 138 229 251 255 35 33 234 234 228 233 236 223 157 156 160 173 189 198 199 206 214
98 100 103 106 113 124 126 132 113 101 114 101 95 112 148 146 55 152 195 214 201 156 162 178 141 131 128 165 104 152 183 230 81 201 228 235 67 64 65 77 106 157 170 161 148 146 153 156 154 180 187 195 213 216
85 100 117 119 120 123 121 129 117 145 16 320 133 27 152 213 254 206 189 175 181 154 153 161 113 129 111 108 162 155 228 316 280 267 236 290 85 76 86 104 124 122 136 139 141 148 155 163 169 178 189 195 207 215
76 71 63 47 66 75 65 108 149 211 290 282 304 195 188 75 74 50 24 2 73 143 142 122 82 105 193 124 211 196 313 255 214 234 100 133 113 97 107 118 137 132 135 134 136 151 155 163 174 181 181 190 191 181
36 45 56 83 101 61 47 59 100 340 318 336 8 14 353 27 345 343 331 292 251 221 160 126 138 127 225 184 161 210 200 218 212 149 141 142 143 144 149 149 152 148 149 152 152 155 155 153 159 162 164 168 168 170
48 26 28 37 17 342 345 349 202 218 326 338 301 262 291 268 244 271 236 248 217 223 166 149 165 202 180 210 202 195 202 167 137 150 170 178 167 163 160 153 150 149 148 149 149 146 148 143 145 163 166 169 169 171
50 8 330 332 332 341 347 28 21 273 232 236 275 158 229 239 219 240 241 242 237 204 201 160 287 194 197 190 228 150 121 137 149 170 172 162 156 155 155 154 154 153 149 152 156 161 166 171 176 181 178 177 175 177
341 331 317 331 339 332 332 318 290 280 248 230 305 303 282 280 279 266 245 240 237 224 164 188 250 225 160 78 120 128 166 166 171 167 170 170 176 170 169 166 164 164 166 167 172 180 181 184 191 192 193 193 192 191
286 299 312 322 336 349 304 259 274 264 263 227 260 266 268 271 290 293 288 252 218 204 200 235 149 157 128 136 119 165 173 175 171 159 165 179 180 175 181 178 181 185 184 165 151 168 172 179 193 197 201 196 188 190
284 299 312 324 304 237 253 279 254 246 283 251 253 287 273 232 267 258 270 211 188 206 198 162 160 150 155 151 161 165 182 197 188 189 186 179 181 187 177 185 197 197 182 171 181 182 181 194 196 197 200 195 206 214
264 271 293 313 281 275 265 236 253 295 276 246 232 225 258 245 218 219 222 227 250 188 167 175 168 170 154 154 162 174 192 199 195 187 185 184 174 182 188 195 192 182 185 191 195 194 201 208 209 216 208 204 208 215
155 254 247 259 257 257 270 278 265 236 228 253 226 260 239 230 201 196 250 227 227 202 186 182 173 170 174 170 164 178 189 194 192 186 179 182 189 191 192 189 183 188 195 201 206 213 216 215 222 226 213 205 207 211
186 217 238 234 219 263 313 287 267 286 294 285 244 266 261 181 178 237 255 200 195 191 185 181 182 167 164 172 170 167 175 179 180 176 182 177 177 180 185 179 182 201 207 212 214 218 213 217 227 225 206 211 210 215
213 236 223 273 239 243 264 259 287 300 250 221 303 290 271 184 242 236 234 161 179 183 183 186 183 190 177 176 175 178 185 188 191 176 175 182 178 171 178 186 198 213 212 211 214 214 211 222 224 204 215 212 206 216
198 194 161 241 203 211 249 264 223 242 258 250 252 39 329 278 255 250 58 58 173 200 198 197 188 185 193 198 180 182 185 179 177 182 181 190 193 202 197 198 197 201 213 204 202 205 209 212 213 204 214 213 211 219
260 231 217 217 299 330 304 262 278 282 282 234 244 152 238 248 250 80 49 7 303 236 221 210 197 203 198 184 184 183 186 190 194 197 192 198 199 200 202 208 222 223 216 201 193 195 204 213 210 204 210 215 214 217
288 344 175 196 286 239 268 302 261 222 236 121 32 233 242 243 353 267 287 290 235 233 221 210 205 204 201 192 190 189 198 201 197 197 202 214 220 219 221 222 215 211 202 210 209 203 204 218 216 205 200 211 215 205
219 181 309 274 272 256 225 225 243 268 51 217 213 269 314 307 271 310 322 322 272 217 197 181 189 193 183 182 199 228 196 188 194 197 214 225 219 238 213 211 209 211 220 221 221 209 203 207 217 209 196 206 205 196
141 123 275 215 193 243 236 217 233 256 270 258 260 271 279 284 291 293 292 290 254 214 219 229 218 198 194 207 210 208 208 193 197 216 220 215 224 223 232 226 211 202 200 202 212 200 192 193 200 197 196 193 187 189
322 297 259 245 264 272 245 262 272 285 280 271 272 255 260 278 284 288 284 277 247 206 212 216 218 222 220 217 219 218 221 217 207 212 213 215 216 218 233 235 223 201 183 190 210 179 181 193 197 193 190 184 182 184
218 219 251 262 287 280 306 265 271 269 270 264 259 252 252 247 250 272 272 252 209 207 212 217 226 222 224 221 221 217 220 216 194 197 206 217 222 229 226 220 211 199 188 202 187 175 190 193 189 187 182 181 182 184
218 242 251 262 254 242 188 218 256 259 234 239 242 245 246 247 241 257 265 252 228 220 213 213 216 226 224 212 211 217 218 218 208 202 209 216 218 220 212 196 189 182 178 175 181 180 186 188 186 185 185 185 183 184
Height
1262 1268 1274 1279 1284 1291 1298 1305 1314 1323 1333 1342 1350 1358 1364 1371 1376 1381 1385 1391 1396 1397 1394 1396 1391 1390 1393 1394 1399 1401 1413 1418 1418 1424 1425 1424 1427 1424 1431 1425 1429 1434 1441 1444 1449 1449 1449 1427 1427 1434 1433 1430 1431 1434
1246 1255 1263 1270 1275 1283 1291 1299 1309 1319 1328 1337 1345 1353 1359 1365 1371 1376 1381 1386 1392 1396 1393 1393 1389 1389 1389 1388 1395 1394 1400 1405 1412 1421 1426 1428 1431 1424 1425 1431 1420 1437 1432 1438 1437 1437 1425 1426 1425 1425 1426 1428 1431 1433
1235 1246 1254 1263 1268 1278 1287 1297 1307 1316 1325 1334 1341 1348 1354 1360 1366 1371 1376 1382 1390 1393 1390 1392 1388 1388 1388 1390 1387 1392 1399 1403 1407 1411 1418 1424 1426 1419 1427 1425 1417 1418 1418 1427 1426 1422 1423 1423 1423 1425 1428 1431 1431 1430
1229 1240 1250 1258 1265 1276 1286 1297 1307 1316 1324 1331 1338 1343 1348 1354 1361 1367 1371 1377 1384 1385 1387 1388 1390 1389 1389 1392 1394 1393 1397 1403 1406 1409 1414 1419 1422 1414 1419 1415 1417 1415 1415 1420 1422 1419 1419 1421 1422 1422 1423 1431 1432 1430
1229 1238 1250 1257 1267 1278 1289 1299 1308 1316 1323 1329 1335 1340 1345 1350 1356 1362 1368 1372 1375 1382 1381 1384 1388 1388 1388 1392 1394 1395 1399 1402 1404 1409 1412 1416 1413 1416 1415 1415 1419 1412 1415 1421 1425 1414 1416 1419 1420 1421 1424 1426 1428 1428
1236 1245 1252 1259 1271 1283 1293 1302 1310 1317 1324 1329 1333 1337 1339 1339 1344 1357 1360 1369 1373 1379 1382 1384 1385 1384 1387 1390 1393 1395 1399 1402 1404 1407 1409 1409 1409 1413 1419 1418 1406 1409 1409 1410 1410 1412 1413 1414 1415 1417 1420 1422 1424 1425
1247 1254 1261 1271 1281 1291 1299 1307 1314 1320 1326 1331 1332 1330 1327 1331 1342 1350 1351 1353 1365 1373 1376 1379 1382 1386 1389 1392 1396 1400 1402 1404 1404 1406 1408 1408 1408 1411 1415 1416 1403 1404 1406 1405 1405 1408 1409 1410 1411 1413 1415 1417 1419 1421
1261 1269 1277 1285 1292 1299 1306 1313 1319 1324 1329 1331 1330 1330 1328 1335 1341 1348 1353 1360 1366 1368 1370 1378 1386 1389 1393 1396 1400 1402 1404 1405 1404 1405 1404 1403 1405 1406 1407 1399 1399 1400 1400 1400 1402 1403 1403 1405 1407 1409 1411 1414 1416 1418
1281 1286 1292 1297 1303 1309 1314 1319 1324 1329 1332 1333 1335 1338 1340 1340 1345 1350 1355 1359 1364 1369 1369 1373 1383 1394 1392 1396 1399 1402 1403 1403 1403 1404 1403 1402 1402 1399 1391 1392 1392 1392 1392 1393 1395 1397 1398 1400 1402 1405 1407 1409 1412 1415
1297 1301 1304 1308 1313 1318 1322 1327 1331 1335 1338 1341 1343 1343 1344 1350 1353 1357 1366 1367 1367 1369 1372 1375 1378 1387 1389 1392 1397 1401 1402 1404 1404 1398 1396 1395 1389 1379 1380 1381 1381 1382 1384 1386 1388 1389 1391 1394 1397 1400 1403 1406 1410 1412
1312 1313 1316 1319 1323 1327 1330 1334 1338 1342 1344 1347 1349 1354 1356 1357 1359 1365 1372 1375 1376 1378 1376 1375 1377 1381 1387 1390 1392 1395 1402 1403 1397 1391 1393 1386 1380 1368 1366 1368 1370 1373 1377 1381 1382 1383 1386 1389 1393 1397 1401 1404 1406 1409
1326 1327 1328 1330 1333 1336 1340 1343 1347 1350 1351 1352 1354 1359 1362 1365 1369 1373 1376 1376 1377 1375 1371 1372 1375 1378 1383 1386 1390 1396 1399 1396 1393 1387 1387 1380 1367 1363 1359 1360 1362 1368 1374 1375 1383 1381 1381 1385 1390 1395 1398 1401 1404 1407
1337 1338 1340 1342 1344 1347 1350 1354 1356 1356 1357 1358 1360 1363 1365 1369 1375 1376 1383 1373 1374 1364 1365 1369 1376 1377 1381 1385 1388 1393 1393 1391 1384 1387 1381 1371 1367 1365 1364 1363 1362 1365 1369 1373 1379 1380 1382 1385 1391 1395 1397 1400 1403 1405
1348 1349 1350 1352 1354 1356 1359 1360 1360 1362 1362 1362 1362 1368 1368 1373 1370 1366 1365 1364 1362 1362 1363 1367 1372 1376 1379 1384 1387 1392 1386 1385 1381 1378 1372 1372 1369 1369 1368 1369 1370 1371 1372 1374 1378 1381 1385 1388 1392 1395 1397 1399 1401 1402
1357 1358 1357 1359 1361 1362 1364 1366 1366 1366 1366 1364 1363 1368 1365 1361 1363 1363 1362 1361 1362 1363 1365 1369 1374 1377 1380 1385 1384 1383 1385 1380 1378 1374 1371 1371 1371 1371 1372 1373 1374 1375 1376 1378 1381 1384 1386 1389 1391 1394 1396 1397 1399 1401
1366 1367 1367 1367 1368 1368 1368 1368 1368 1366 1364 1363 1361 1362 1362 1362 1363 1364 1364 1362 1363 1364 1367 1370 1375 1380 1381 1378 1378 1380 1375 1374 1373 1370 1370 1371 1372 1373 1374 1375 1376 1378 1379 1381 1383 1386 1388 1389 1391 1393 1395 1397 1399 1401
1370 1371 1370 1369 1369 1369 1368 1368 1368 1368 1366 1365 1364 1363 1363 1364 1364 1364 1364 1363 1364 1364 1368 1368 1373 1372 1369 1372 1370 1367 1372 1367 1367 1370 1370 1371 1372 1373 1375 1376 1378 1379 1381 1383 1385 1387 1389 1391 1393 1394 1396 1398 1400 1401
1372 1373 1372 1371 1369 1367 1366 1366 1366 1366 1364 1364 1363 1363 1363 1362 1362 1363 1362 1363 1363 1363 1364 1364 1364 1363 1367 1363 1366 1363 1365 1367 1368 1369 1370 1371 1373 1374 1376 1378 1380 1382 1383 1385 1386 1388 1390 1392 1394 1395 1396 1398 1400 1401
1374 1374 1373 1372 1371 1369 1367 1367 1366 1365 1362 1362 1362 1361 1360 1360 1360 1360 1360 1360 1361 1361 1363 1363 1360 1357 1359 1358 1360 1363 1364 1366 1367 1369 1370 1372 1374 1375 1377 1379 1381 1382 1384 1385 1387 1388 1390 1392 1394 1395 1396 1397 1399 1400
1373 1374 1373 1372 1370 1369 1368 1366 1365 1364 1362 1361 1360 1359 1358 1357 1357 1357 1356 1357 1359 1361 1361 1353 1356 1357 1357 1358 1359 1360 1362 1364 1366 1368 1370 1371 1373 1375 1377 1379 1380 1382 1383 1385 1387 1388 1390 1392 1393 1395 1396 1397 1398 1399
1371 1371 1371 1370 1369 1369 1367 1364 1363 1361 1360 1359 1358 1358 1356 1355 1354 1354 1354 1354 1355 1355 1355 1355 1355 1356 1357 1357 1359 1360 1361 1362 1364 1366 1368 1370 1373 1375 1376 1378 1380 1381 1383 1385 1386 1388 1390 1391 1392 1394 1395 1397 1398 1400
1368 1369 1369 1369 1368 1367 1365 1362 1362 1360 1359 1357 1357 1356 1355 1353 1352 1351 1351 1352 1351 1349 1350 1350 1351 1353 1355 1356 1357 1359 1360 1362 1363 1365 1366 1369 1371 1374 1376 1377 1379 1381 1383 1384 1386 1387 1389 1390 1392 1393 1394 1396 1397 1398
1368 1368 1368 1368 1368 1366 1363 1361 1360 1357 1357 1356 1355 1354 1351 1351 1350 1351 1350 1347 1345 1345 1347 1348 1350 1352 1354 1356 1357 1359 1360 1361 1362 1364 1366 1368 1370 1372 1374 1376 1378 1380 1381 1383 1384 1386 1387 1389 1390 1391 1392 1394 1395 1397
1368 1368 1366 1365 1365 1364 1362 1361 1359 1357 1355 1355 1354 1352 1350 1349 1350 1350 1346 1341 1341 1343 1345 1346 1348 1351 1354 1355 1357 1358 1359 1361 1362 1364 1366 1367 1369 1371 1373 1375 1377 1378 1380 1381 1382 1384 1385 1386 1387 1388 1390 1391 1393 1394
1369 1367 1366 1364 1364 1364 1362 1359 1358 1356 1357 1354 1353 1353 1350 1349 1349 1346 1341 1339 1340 1342 1343 1346 1348 1349 1352 1354 1356 1357 1359 1360 1361 1363 1365 1367 1368 1370 1372 1374 1375 1376 1378 1379 1380 1381 1382 1384 1385 1386 1387 1389 1390 1391
1368 1364 1365 1361 1361 1362 1360 1359 1358 1356 1355 1354 1353 1351 1350 1350 1348 1343 1339 1341 1341 1342 1344 1345 1347 1349 1351 1352 1354 1356 1358 1360 1361 1363 1364 1366 1367 1369 1370 1371 1373 1375 1375 1376 1377 1378 1380 1381 1382 1384 1385 1387 1388 1389
1366 1363 1362 1362 1362 1362 1360 1358 1358 1358 1357 1355 1352 1352 1351 1351 1347 1343 1343 1343 1343 1343 1343 1344 1346 1348 1349 1351 1354 1355 1357 1359 1360 1362 1363 1364 1366 1367 1368 1369 1370 1371 1373 1374 1375 1376 1377 1379 1380 1381 1383 1384 1386 1387
1363 1363 1364 1362 1362 1362 1362 1360 1357 1357 1352 1351 1352 1352 1348 1346 1344 1344 1344 1343 1343 1342 1342 1343 1344 1346 1348 1350 1352 1353 1355 1357 1358 1360 1361 1362 1363 1364 1365 1366 1368 1369 1370 1371 1373 1374 1375 1377 1378 1379 1380 1382 1383 1385
1362 1362 1364 1362 1362 1361 1358 1357 1353 1351 1351 1351 1351 1348 1345 1344 1343 1342 1342 1341 1341 1342 1342 1342 1343 1344 1346 1349 1351 1352 1353 1355 1357 1358 1359 1360 1361 1362 1362 1363 1364 1366 1367 1368 1370 1371 1372 1374 1376 1377 1378 1380 1381 1383
1363 1363 1363 1360 1361 1359 1352 1351 1350 1350 1349 1349 1348 1346 1344 1342 1340 1340 1339 1339 1339 1340 1341 1341 1343 1343 1344 1346 1348 1350 1352 1353 1354 1356 1356 1357 1358 1360 1361 1361 1362 1363 1364 1365 1366 1368 1370 1372 1374 1375 1377 1379 1380 1382
1363 1363 1362 1359 1354 1350 1349 1349 1348 1347 1345 1343 1343 1342 1340 1339 1336 1334 1333 1332 1333 1336 1338 1339 1340 1341 1343 1344 1345 1347 1349 1350 1351 1352 1354 1355 1356 1358 1359 1359 1360 1361 1362 1364 1365 1366 1368 1370 1372 1374 1376 1378 1380 1382
1359 1359 1357 1355 1351 1349 1348 1346 1344 1343 1340 1339 1338 1337 1337 1336 1335 1331 1327 1327 1328 1331 1333 1335 1337 1339 1341 1342 1343 1345 1346 1347 1348 1350 1351 1353 1354 1355 1356 1357 1358 1359 1361 1362 1364 1365 1367 1369 1371 1372 1375 1377 1379 1381
1352 1351 1350 1350 1347 1344 1343 1344 1342 1339 1337 1334 1332 1332 1332 1332 1330 1327 1324 1324 1325 1327 1329 1332 1334 1336 1337 1340 1341 1343 1345 1346 1348 1349 1350 1352 1353 1354 1354 1355 1356 1358 1359 1361 1363 1365 1367 1368 1370 1372 1374 1377 1379 1381